Location: Roanoke
(37.2710°N, 79.9420°W)
Time: 04:54:44
(UTC-05:00)

SR - Pass Details

Date: 14 November 2019
Orbit: 573 x 882 km, 66.7° (Epoch: 15 December)

Event Time Altitude Azimuth Distance (km) Brightness Sun altitude
Rises 17:52:30 0° 270° (W) 3,218 ? -8.7°
Reaches altitude 10° 17:57:01 10° 306° (NW) 2,381 ? -9.6°
Maximum altitude 17:58:28 11° 321° (NW) 2,339 ? -9.9°
Drops below altitude 10° 17:59:56 10° 336° (NNW) 2,432 ? -10.2°
Sets 18:04:46 0° 12° (NNE) 3,435 ? -11.1°
